User: anonymous
Location: Caltech
(34.1382°N, 118.1253°W)
Time: 13:23:20
(UTC-07:00)
Language:

SL-16 R/B - Orbit

View from above orbital plane
View from above orbital plane
View from above satellite
View from above satellite

Ground track
Ground track

The orbit data is extracted from the following two-line orbital elements,

1 31793U 07029B   14265.15574831  .00000338  00000-0  20199-3 0   789
2 31793 070.9766 327.4926 0002307 266.0505 115.1381 14.14277943373464
Epoch (UTC): 22 September 2014 03:44:16
Eccentricity: 0.0002307
inclination: 70.9766°
perigee height: 843 km
apogee height: 846 km
right ascension of ascending node: 327.4926°
argument of perigee: 266.0505°
revolutions per day: 14.14277943
mean anomaly at epoch: 115.1381°
orbit number at epoch: 37346

The dashed part of the orbit path shows where the satellite is in the earth's shadow,  

DLR